RH
37 35 32 27 24 21 18 16 14 12 12 13 16 17 18 22 24 20 17 17 16 17 19 22 23 21 22 25 27 30 33 34 35 34 35 35 37 39 42 45 48 53 64 76 89 96 98 100 103 104 104 103 104 100 93 90 91 93 97 99 100 99 98 97 96 94 94 95 97 99 101 102 102 102 101 101 102 103 99 92 83 75 66 56 47 41
32 27 23 18 15 13 11 10 10 11 13 16 19 20 21 25 27 26 25 23 21 20 21 23 25 22 22 25 27 30 32 32 33 34 36 38 39 41 44 49 57 69 83 92 97 99 100 101 101 102 104 103 102 100 97 97 98 97 96 96 96 96 97 98 98 100 102 102 104 104 103 103 102 101 101 101 101 99 93 87 78 65 53 43 37 33
21 17 13 11 9 9 9 9 10 12 15 17 19 22 24 25 27 31 33 31 28 30 31 32 31 27 28 34 38 39 41 41 41 43 46 51 57 63 70 77 86 94 98 99 100 103 105 105 107 107 105 103 98 96 95 94 95 94 93 95 96 98 100 102 104 106 107 104 103 102 101 101 101 102 102 99 99 97 90 80 66 52 43 37 33 30
12 11 9 9 9 9 10 10 11 13 14 15 16 18 20 22 24 26 30 32 31 33 39 41 36 30 36 47 53 56 60 64 67 72 78 83 88 94 98 101 102 103 103 105 107 106 104 101 99 97 94 93 92 92 94 94 96 97 97 100 102 102 102 102 103 104 103 102 101 100 102 103 101 104 105 100 95 86 72 59 47 40 35 33 32 31
10 10 10 10 10 11 12 13 13 14 15 15 15 16 17 18 20 21 23 27 27 30 37 40 33 28 37 48 56 63 71 79 85 92 99 101 101 102 104 105 106 105 105 107 106 101 97 94 91 92 93 95 97 98 99 99 100 101 101 102 102 102 102 101 101 101 100 101 100 101 108 108 100 98 95 85 73 59 47 40 37 35 33 33 33 32
11 11 12 13 13 14 15 16 17 18 20 20 20 20 21 21 22 22 23 23 23 25 32 34 29 26 32 41 51 62 72 81 89 97 104 105 103 103 104 105 105 105 104 104 103 99 98 98 98 99 99 100 101 101 101 102 102 102 101 101 101 100 100 100 100 100 102 104 102 99 100 94 82 73 64 53 46 39 37 37 36 37 37 37 37 36
14 14 16 17 18 19 20 20 21 22 23 24 24 23 24 25 25 26 26 24 23 24 27 31 29 24 24 30 41 53 62 71 81 93 104 107 105 103 103 103 102 102 102 102 101 100 101 101 101 102 101 102 103 102 103 103 102 103 102 101 103 103 102 103 103 100 96 92 85 75 68 60 52 47 41 39 39 39 40 41 41 42 42 42 42 41
18 20 21 22 23 23 24 23 23 23 23 24 24 24 25 25 25 26 26 26 25 25 27 31 31 25 21 24 30 38 46 54 64 77 92 101 104 102 102 103 102 103 104 103 103 103 104 104 103 104 104 103 104 104 105 105 103 104 103 100 101 99 94 90 84 75 65 58 52 47 44 42 41 41 41 43 45 46 47 47 47 48 49 49 48 46
23 25 26 25 25 24 23 23 22 22 23 23 23 23 23 24 24 24 24 25 25 24 26 30 29 25 23 24 26 29 34 39 46 55 66 75 82 83 84 88 90 91 91 91 91 90 90 90 88 88 87 86 86 86 85 84 81 80 77 73 69 66 61 57 51 48 45 44 44 44 45 46 47 48 49 50 52 53 54 55 55 55 55 55 53 50
26 26 25 24 24 23 22 22 21 21 21 22 22 22 23 23 23 24 24 25 24 24 26 28 27 24 24 23 25 27 29 32 35 39 44 46 49 51 54 57 58 58 58 58 58 58 57 57 55 55 55 54 54 54 54 53 52 52 51 50 50 49 49 49 50 51 51 53 54 55 57 58 58 59 59 59 59 58 57 57 56 55 54 53 51 49
24 23 22 22 21 21 21 21 20 21 21 22 22 22 23 23 24 25 25 26 26 26 28 30 29 29 28 27 29 31 32 34 36 37 39 39 40 42 42 43 43 43 44 44 45 45 45 46 48 49 50 52 53 55 56 57 58 60 61 62 62 63 64 65 66 67 68 70 69 68 67 64 62 59 57 56 54 51 49 48 47 47 47 47 46 45
22 21 21 21 21 21 21 21 21 22 23 23 24 25 26 26 27 27 29 31 31 31 32 34 34 35 34 34 37 39 39 41 43 43 44 45 45 46 46 47 48 48 49 51 54 57 61 65 69 73 76 78 79 79 79 78 77 77 77 77 76 75 75 74 74 73 71 68 65 61 58 54 52 50 49 49 48 48 48 48 49 49 50 50 48 47
22 22 22 22 22 23 24 24 25 26 27 28 29 30 30 30 30 30 33 35 34 34 34 35 36 35 36 39 42 42 41 44 47 49 49 49 49 51 55 58 60 63 67 73 78 83 87 90 91 91 90 89 86 83 79 76 73 72 72 71 70 68 67 66 65 64 62 61 60 59 57 56 55 55 54 53 52 52 52 52 52 53 55 55 54 53
23 23 23 24 25 26 27 28 29 29 30 31 31 31 31 30 29 29 31 33 33 33 33 35 37 36 40 45 47 47 49 53 57 58 58 59 61 64 68 73 76 78 81 83 83 82 81 79 76 72 70 67 65 63 62 63 64 67 70 71 72 71 71 71 71 71 71 71 70 68 67 64 62 60 59 57 55 53 52 50 50 51 52 53 53 54
28 27 26 27 27 27 28 28 28 29 28 28 29 29 29 29 27 27 28 30 33 34 34 37 39 40 47 52 55 58 59 59 60 60 63 64 63 63 65 67 68 66 64 61 59 58 57 57 58 58 59 61 64 67 72 77 81 84 85 85 86 85 83 81 80 78 77 77 76 74 72 70 67 65 64 62 60 58 56 55 53 52 52 52 52 52
30 30 27 27 26 26 27 27 26 26 25 25 26 26 26 26 25 23 23 25 29 30 31 35 36 38 43 47 51 56 54 51 50 50 50 49 47 47 47 49 49 49 50 52 55 58 60 62 64 66 70 74 78 81 83 84 85 86 85 85 85 85 84 83 83 83 83 83 82 81 78 76 73 70 68 66 64 61 59 57 55 54 52 51 49 48
28 28 25 23 23 22 22 22 21 20 20 19 20 20 20 21 21 20 20 21 23 24 26 30 32 34 36 36 37 40 38 36 36 34 34 35 37 40 42 45 49 53 58 62 65 67 67 68 69 71 73 75 76 77 77 77 78 79 80 82 85 85 84 84 83 82 81 79 77 74 72 69 66 64 62 60 58 55 53 51 49 47 46 44 42 40
22 22 20 18 18 18 17 17 17 17 18 18 18 18 18 20 21 21 21 21 22 23 23 26 28 30 32 31 30 32 32 32 32 32 34 37 41 44 48 51 55 58 60 62 63 63 65 68 70 73 73 74 74 76 78 80 81 82 82 83 83 82 80 78 76 74 72 70 68 65 63 61 58 56 54 52 50 48 46 44 42 40 39 37 35 32
17 18 18 16 15 16 17 17 17 18 18 18 19 19 19 20 20 21 21 21 21 23 23 25 27 30 32 35 36 36 37 38 40 41 43 46 49 53 56 59 60 61 62 63 63 65 68 72 74 76 76 77 78 79 80 80 79 78 77 76 75 73 71 70 69 68 66 64 63 61 59 57 54 51 49 47 44 41 38 35 32 30 28 26 24 22
16 18 19 18 17 18 19 19 19 19 19 19 20 20 21 21 21 22 23 24 25 26 27 28 31 34 39 43 45 44 46 48 50 53 54 57 60 64 68 69 68 67 67 67 68 70 72 74 74 75 75 76 76 76 75 74 72 72 71 71 70 69 67 66 64 62 60 58 55 52 49 45 42 39 35 32 29 26 24 21 19 17 16 15 14 14
18 19 20 20 19 19 20 20 21 21 21 22 23 24 24 25 26 27 29 31 32 34 35 36 36 42 48 50 50 51 54 57 60 63 65 66 69 72 74 74 72 71 72 72 71 72 72 72 72 72 72 72 72 72 71 70 68 68 67 66 64 61 58 54 51 47 43 39 35 31 28 25 22 20 18 17 15 14 13 13 12 12 12 12 11 11
19 20 21 21 21 21 22 23 24 25 26 27 29 30 31 32 34 36 38 42 45 46 46 43 42 49 55 55 54 57 59 62 64 66 67 67 68 70 70 70 70 71 71 69 68 68 68 68 68 69 69 69 68 67 65 62 59 56 52 49 44 40 35 31 28 25 22 20 18 16 15 14 13 12 12 12 11 11 11 10 10 10 10 10 9 9
21 23 24 24 26 27 28 29 30 31 33 35 38 39 41 43 45 45 46 50 53 55 55 52 51 57 63 64 65 67 67 68 68 69 69 68 67 68 68 69 69 69 67 66 66 66 65 65 64 63 61 59 55 51 47 42 38 34 30 27 24 21 19 17 15 14 14 13 12 12 11 11 11 10 10 10 9 9 9 8 8 8 8 7 7 7
26 28 30 32 33 34 35 36 37 39 42 45 48 49 50 52 53 54 55 56 58 62 64 62 63 66 67 69 72 73 72 73 72 73 72 70 69 70 71 71 69 68 66 63 61 60 57 53 50 46 42 37 33 29 25 22 20 18 17 15 15 14 13 12 12 11 11 10 10 10 9 9 9 8 8 8 8 7 7 7 7 6 6 6 5 5
31 32 34 37 40 41 42 42 44 47 49 52 55 57 59 60 61 62 63 64 65 67 68 68 68 68 67 67 69 69 70 71 70 70 69 67 68 69 69 68 65 62 57 53 49 44 39 34 30 27 23 20 18 17 15 15 14 13 13 12 11 11 10 10 10 9 9 9 9 8 8 8 8 7 7 6 6 6 6 6 6 5 5 5 4 5
35 35 36 39 43 45 47 48 51 54 56 58 59 61 63 64 65 65 65 65 65 65 65 66 65 65 63 63 64 64 66 66 66 66 64 62 61 60 58 54 49 44 39 34 30 26 23 20 18 17 15 14 14 13 13 12 12 11 11 10 10 10 9 9 9 8 8 8 7 7 7 7 6 6 6 6 6 5 5 5 5 5 5 5 5 5
39 40 42 44 45 47 49 51 52 54 56 58 59 61 62 62 63 63 61 60 59 59 59 59 59 58 57 58 59 60 60 60 59 57 54 51 47 42 37 32 27 24 21 19 18 17 16 15 14 14 13 13 12 11 11 11 10 10 9 9 9 8 8 8 7 7 7 6 6 6 6 5 5 6 5 5 5 5 5 5 5 5 5 5 5 5
44 45 46 47 48 48 49 50 49 50 51 52 53 54 55 56 56 56 55 54 53 54 55 55 56 56 56 56 56 54 52 49 46 42 37 33 30 27 24 21 19 18 17 16 16 15 14 14 13 13 12 11 11 10 10 9 9 8 8 8 7 7 7 6 6 6 5 6 5 5 6 5 5 5 5 5 5 5 5 5 5 5 5 5 5 4
45 46 46 47 47 46 46 46 46 46 46 47 48 48 49 50 51 51 52 52 53 55 56 55 53 52 50 47 44 40 36 34 31 28 26 24 22 21 19 18 17 16 15 15 14 13 13 12 12 11 11 10 9 9 9 8 8 8 7 7 7 6 6 6 6 6 5 6 6 5 5 5 5 5 5 5 5 5 5 5 5 5 4 4 4 4
44 44 44 44 45 45 45 45 45 46 46 47 47 48 49 50 51 52 52 52 52 51 49 45 41 38 35 32 29 27 25 24 23 21 20 19 18 17 16 15 14 14 13 13 12 11 11 10 10 9 9 8 8 8 8 7 8 7 7 7 7 6 6 6 6 6 5 6 5 5 5 5 5 5 5 5 5 4 4 4 4 4 4 3 3 3
43 43 44 44 45 46 46 46 47 48 48 49 48 48 48 47 46 45 44 42 41 38 34 30 27 26 24 23 22 21 20 19 19 17 16 16 15 14 13 12 12 11 11 10 9 9 9 9 9 9 8 8 8 8 8 7 7 7 7 7 6 6 6 6 6 6 6 5 5 5 5 5 4 4 4 4 4 4 4 3 3 3 3 3 3 3
43 44 44 44 46 46 45 46 46 45 45 44 41 38 36 34 32 30 28 28 27 26 23 21 21 21 20 19 19 18 18 17 16 15 14 14 13 12 11 10 9 9 9 9 9 9 9 9 9 9 9 8 8 7 7 7 7 7 6 6 6 6 6 6 6 6 5 5 5 5 5 4 4 4 4 4 3 3 3 3 3 3 3 3 3 2
42 42 42 40 40 39 37 36 35 33 32 29 27 25 23 22 22 21 21 21 20 19 18 18 18 18 17 17 17 16 16 14 13 12 11 11 10 10 9 9 9 9 9 10 10 10 10 9 9 8 8 7 7 7 7 7 7 7 7 7 6 6 6 6 6 6 5 5 5 4 4 4 3 3 3 3 3 3 3 3 3 3 3 3 3 2
36 35 34 31 30 27 25 24 23 21 20 19 19 19 18 18 18 19 19 19 19 17 17 16 16 15 14 14 13 12 11 11 10 9 9 9 9 9 9 10 10 10 10 10 9 9 9 8 8 7 7 7 7 7 7 7 7 7 7 7 6 6 6 6 5 5 4 4 3 3 3 3 3 3 3 3 3 3 3 3 3 3 3 3 3 3
26 25 23 22 20 19 18 17 17 17 17 16 16 16 16 16 16 16 17 17 16 15 14 13 12 11 11 10 10 10 9 9 9 9 9 10 10 9 9 9 9 9 8 8 8 8 8 8 8 8 8 7 7 7 8 8 7 7 7 7 6 6 5 5 4 4 3 3 3 3 3 3 3 3 3 4 4 4 3 3 3 3 3 3 3 3
19 18 18 17 17 17 17 16 16 16 15 15 14 14 14 13 13 13 13 13 12 11 11 10 10 10 10 10 10 10 11 11 10 10 10 9 9 8 8 8 8 8 8 8 9 9 9 9 8 8 8 8 8 7 7 7 7 7 6 6 5 5 4 4 4 3 3 3 3 3 3 3 3 4 4 4 4 4 3 3 3 3 3 3 3 3
17 17 16 16 16 16 16 16 15 14 13 13 12 11 11 11 10 10 10 11 11 11 11 11 11 11 11 11 11 11 11 11 11 9 9 9 8 8 8 9 9 9 9 10 9 9 9 9 8 8 8 7 7 7 6 6 6 6 5 5 4 4 4 4 4 4 3 4 4 3 3 4 3 4 4 4 4 4 3 3 3 3 3 3 3 3
17 17 16 16 15 15 14 14 13 12 12 11 11 11 11 11 10 11 11 11 11 11 11 11 11 11 11 11 11 11 10 11 11 10 9 9 10 10 10 10 11 10 10 10 9 9 9 8 7 7 6 6 6 6 6 5 5 5 4 4 4 4 4 4 4 4 4 4 4 4 4 4 4 3 4 3 3 3 3 3 3 3 3 3 3 3
17 17 15 15 13 12 12 12 11 11 11 11 11 11 10 10 11 11 11 11 11 11 11 11 11 11 10 10 10 10 9 10 11 12 12 12 12 12 12 11 10 10 9 8 8 8 7 7 7 6 6 6 5 5 5 4 4 4 4 4 4 4 4 4 4 4 4 4 4 4 3 3 3 3 3 3 3 3 3 3 3 3 3 3 3 3
16 15 14 13 12 11 11 11 11 11 11 11 11 11 11 11 12 11 11 11 12 11 11 11 10 10 10 10 10 10 9 9 11 12 13 13 13 12 11 10 9 8 8 8 7 7 7 6 6 6 5 5 5 5 5 4 4 4 4 4 4 4 4 4 4 3 3 4 4 3 3 3 3 3 3 3 3 3 3 3 2 2 3 3 3 3
15 14 14 13 13 12 12 13 13 13 13 13 13 13 13 13 13 13 12 12 12 12 11 11 10 10 10 10 10 10 10 11 11 11 11 11 11 10 9 9 9 8 8 8 7 7 6 6 5 5 5 5 5 5 5 5 5 5 4 4 4 4 4 3 3 3 3 4 4 3 3 3 3 3 3 3 3 3 3 3 2 2 3 3 3 2
16 15 14 14 13 13 13 13 14 14 14 14 14 14 14 14 14 13 13 12 11 11 11 10 10 10 10 10 11 11 11 12 11 11 10 9 9 9 9 9 9 8 8 7 6 6 6 5 5 5 5 5 5 5 5 5 5 4 4 5 4 4 4 3 3 4 3 4 4 3 3 3 3 3 3 3 3 3 3 2 2 3 3 3 2 2
15 14 13 12 12 12 12 12 13 13 14 14 14 14 14 14 13 13 12 12 11 10 9 9 9 9 10 11 12 12 12 12 11 10 10 9 9 9 9 8 8 7 7 6 6 6 6 6 6 5 5 5 5 5 5 5 5 5 5 5 4 4 4 3 3 4 3 3 3 3 3 3 3 3 3 3 3 3 3 2 2 3 3 3 3 3
13 12 11 11 11 11 11 12 12 12 13 13 13 13 13 13 13 12 11 11 10 9 9 9 9 10 11 12 13 13 13 12 11 10 10 10 10 9 8 7 7 6 6 6 6 6 6 6 5 5 5 5 4 5 5 5 5 5 4 4 4 4 3 3 3 3 3 3 3 3 3 3 3 3 3 3 3 3 2 3 3 3 3 3 3 3
12 11 11 11 11 11 12 12 12 12 13 13 13 13 13 13 12 12 11 10 9 9 9 9 10 11 12 12 13 13 12 12 11 10 10 10 9 8 7 7 6 6 6 6 6 6 6 5 5 5 5 5 5 5 5 4 4 4 4 4 4 4 3 3 3 3 3 3 3 3 3 3 3 3 3 3 3 3 3 2 3 3 3 3 3 3
12 12 11 11 11 12 12 12 12 12 13 13 13 13 14 13 13 12 11 10 10 9 9 10 10 11 12 12 13 12 11 11 10 10 10 9 8 7 7 7 6 6 6 6 6 6 6 6 6 6 5 5 5 4 4 4 4 4 4 4 4 3 3 3 4 3 3 3 3 3 3 3 3 3 3 3 3 3 3 3 3 3 3 3 3 3
13 12 12 11 11 12 12 13 13 13 13 14 14 14 15 15 14 13 12 11 10 10 10 10 11 11 12 12 12 11 11 10 10 10 10 9 8 7 7 7 7 6 6 6 6 6 6 6 6 6 5 5 5 5 5 4 4 4 4 4 4 3 3 3 3 4 3 3 3 3 3 3 3 3 3 3 3 3 3 3 3 3 3 3 3 3
13 13 12 12 12 12 13 13 14 14 14 15 16 16 16 16 15 13 12 11 11 10 11 11 11 12 12 12 12 11 10 10 10 10 10 9 8 8 7 7 7 7 7 7 7 6 6 6 6 5 5 5 5 5 5 4 4 4 4 3 3 3 4 4 3 3 3 3 3 3 3 3 3 3 3 3 3 3 3 3 3 3 3 3 3 3
14 13 13 12 12 12 12 13 14 15 15 16 16 17 17 16 15 13 12 11 11 11 11 12 12 12 12 12 11 11 10 10 10 10 10 9 8 8 8 7 7 7 7 7 7 6 6 6 5 5 5 5 5 5 4 4 4 4 4 4 4 4 4 4 3 3 3 3 3 3 3 3 3 3 3 3 3 3 3 3 3 3 3 3 3 3
15 14 13 13 12 12 12 13 13 14 14 15 15 15 15 15 14 13 11 11 11 11 11 12 12 12 12 11 11 11 11 11 11 10 9 8 8 8 8 8 7 7 7 7 6 6 6 5 5 5 5 5 5 4 4 4 4 4 4 4 4 4 4 4 3 3 3 3 3 3 3 3 3 3 3 3 3 3 3 3 3 3 3 3 3 3
16 15 14 13 13 13 12 13 13 13 13 14 14 14 15 14 13 12 11 11 11 11 12 12 13 13 12 11 11 11 11 11 11 10 9 8 8 8 8 7 7 7 7 7 7 6 6 5 5 5 5 5 5 4 4 4 4 4 4 4 4 4 4 3 3 3 3 3 3 3 3 3 3 3 3 3 3 3 3 3 3 3 3 3 3 3
Wind_Speed
67 68 69 69 69 69 69 69 68 68 67 66 65 65 64 63 64 66 66 65 66 66 66 68 69 71 73 74 75 76 77 78 79 81 81 82 82 82 82 82 82 82 82 82 81 81 81 81 83 84 86 88 89 89 89 88 88 88 89 91 92 94 96 98 100 102 103 104 105 106 106 107 108 109 111 112 113 114 115 116 115 114 111 108 105 102
66 66 67 66 65 65 64 63 62 62 61 60 60 60 60 60 61 62 62 62 63 63 63 64 66 68 69 71 72 73 74 75 76 77 78 78 79 79 80 80 80 81 81 81 82 83 84 85 86 88 89 90 90 89 89 90 90 92 93 95 96 98 100 102 103 104 105 106 107 108 108 110 111 113 114 115 117 117 118 117 115 112 109 106 104 102
64 64 64 62 61 59 58 57 56 55 56 56 56 56 57 58 59 59 60 61 61 61 62 63 65 66 66 68 69 70 72 72 73 74 74 75 76 77 77 78 79 80 81 83 85 86 88 88 89 89 89 90 90 91 91 93 94 96 97 99 100 102 103 105 106 107 107 108 109 110 111 113 115 116 118 119 119 119 118 115 113 110 108 106 105 104
61 60 59 57 56 54 53 52 52 51 52 53 53 53 54 55 57 57 58 60 60 61 62 63 65 65 65 66 68 69 70 70 71 72 72 73 74 75 77 78 80 82 84 86 88 89 90 90 90 90 91 92 93 94 95 97 98 100 101 103 104 105 106 107 108 108 109 110 111 113 115 117 119 120 120 120 119 117 115 113 111 110 108 107 106 105
56 55 54 53 52 51 50 50 49 49 50 51 51 51 52 54 55 57 58 59 60 61 62 65 66 65 65 67 68 69 70 70 71 71 73 74 75 76 78 81 83 85 87 88 90 90 91 92 92 93 94 95 96 98 99 101 102 104 105 106 107 108 108 109 109 110 112 114 115 117 119 120 121 120 119 117 116 114 113 111 111 110 109 108 106 105
52 51 50 50 49 49 48 48 48 48 48 50 51 51 52 53 55 56 58 59 60 61 63 66 66 65 66 68 69 70 70 71 72 73 75 76 78 79 81 84 86 87 89 90 91 92 93 94 95 97 98 99 101 102 103 105 106 107 108 108 109 109 110 112 113 115 116 118 119 120 120 119 118 116 115 114 113 113 112 111 110 110 109 108 108 106
49 48 47 47 47 47 47 47 48 48 49 50 51 52 53 54 55 57 58 59 60 61 62 65 67 66 65 66 68 70 71 72 74 75 77 79 81 83 85 87 88 90 91 93 94 96 97 98 100 101 102 103 104 105 106 107 108 108 109 110 111 113 114 115 116 117 118 118 117 117 116 115 114 113 113 112 112 111 111 110 110 109 109 109 109 108
46 46 46 46 46 47 47 48 49 50 50 51 52 53 54 55 56 57 59 60 60 61 62 63 67 67 65 65 66 68 69 71 73 75 78 80 83 86 88 90 91 93 94 96 97 98 100 101 102 103 103 104 105 105 106 107 108 109 110 111 112 113 114 114 115 115 114 114 113 113 113 113 112 112 111 111 111 111 111 110 110 109 109 109 109 109
45 45 46 46 47 48 49 50 51 51 52 53 54 55 56 57 58 59 60 61 62 62 62 64 67 68 66 65 65 66 67 68 70 73 76 78 81 84 86 88 89 91 92 94 95 96 97 98 99 100 101 101 102 103 104 105 106 107 108 109 109 110 111 111 111 112 111 111 111 111 111 111 111 111 111 110 110 110 110 110 110 109 109 109 109 109
45 46 47 48 48 49 50 51 52 53 54 55 55 56 57 58 59 61 62 62 64 64 64 66 69 69 68 66 66 67 67 68 70 72 74 76 79 81 82 84 86 87 89 90 91 92 93 94 96 97 98 99 100 101 102 103 104 105 106 107 107 108 109 109 110 110 110 110 111 111 111 111 111 111 111 110 110 110 110 109 109 109 108 108 109 108
47 48 49 50 50 51 52 52 53 54 55 56 57 58 59 60 61 62 63 64 66 65 66 68 70 72 71 69 68 69 69 70 72 74 75 77 79 81 82 84 85 87 88 89 90 91 93 94 95 96 97 98 99 101 101 102 103 104 105 106 107 107 108 108 109 109 110 110 111 111 111 111 110 110 110 109 109 109 109 108 108 108 108 108 108 108
48 50 51 52 52 52 53 54 55 56 57 58 59 61 62 62 63 64 65 66 68 68 68 70 71 73 73 71 70 72 71 72 74 76 77 79 80 81 83 84 86 87 88 89 90 91 92 93 95 96 97 99 100 101 102 103 103 104 106 107 107 107 108 109 109 109 110 110 110 110 110 109 109 109 108 108 108 108 108 109 109 109 109 110 110 111
50 51 53 53 54 55 56 57 57 58 60 61 62 63 64 65 66 65 66 68 69 70 70 71 72 73 72 72 72 73 73 73 75 77 78 80 81 81 83 84 86 87 88 89 91 92 93 95 96 98 99 100 101 102 103 103 103 104 105 105 106 106 106 107 107 108 108 108 109 109 109 109 110 110 110 110 111 111 111 112 112 113 113 114 115 115
52 54 55 56 56 57 58 58 59 60 62 63 64 65 66 67 67 66 67 68 69 70 71 71 73 73 72 73 74 74 74 74 76 78 79 80 81 82 83 85 87 88 90 91 92 93 94 95 96 97 98 98 99 99 100 100 101 101 102 103 104 105 105 106 107 108 109 110 111 112 112 113 113 114 114 115 115 116 116 116 117 117 118 119 120 120
54 57 58 58 58 59 59 60 61 62 63 64 65 66 67 68 68 67 67 68 69 70 71 71 73 72 72 74 75 76 76 77 78 79 80 82 83 84 84 86 87 88 88 89 90 90 91 91 92 93 94 95 95 96 97 98 100 101 102 104 105 107 108 109 110 111 112 114 115 116 117 118 118 119 119 120 121 121 122 122 122 123 123 124 124 125
55 58 59 60 60 60 61 62 63 64 64 65 66 66 67 68 69 68 68 68 69 70 70 71 72 72 73 74 75 77 78 78 78 79 80 81 81 82 82 82 83 84 84 85 86 87 88 89 90 91 93 94 96 97 99 100 102 103 105 107 108 110 111 113 114 115 116 118 119 120 122 122 123 124 124 125 126 127 127 128 128 128 129 130 130 130
56 58 60 60 60 60 61 62 63 63 64 64 65 65 66 67 68 68 67 67 69 69 68 70 71 72 73 73 74 76 76 76 77 76 76 77 78 79 79 80 81 82 83 84 86 87 89 90 92 93 95 97 98 100 102 103 105 107 108 110 112 113 115 116 118 119 120 122 123 125 126 127 128 129 130 130 131 132 133 134 134 135 135 136 136 136
55 57 59 59 58 58 59 60 61 61 62 63 63 64 64 65 66 66 66 65 66 67 66 66 68 69 71 72 72 73 74 75 75 75 75 76 77 79 80 81 82 83 85 87 88 90 91 93 95 97 99 100 102 103 105 107 109 110 112 114 115 117 119 120 122 124 125 127 128 130 131 132 133 134 135 136 136 137 138 138 139 139 140 140 140 140
54 55 58 58 56 56 58 58 59 59 60 61 61 62 62 62 63 64 64 64 64 65 64 64 65 67 69 71 72 73 74 75 76 77 77 78 80 82 83 85 86 87 89 91 92 93 95 97 99 101 103 104 106 108 110 111 113 115 116 118 120 122 124 125 127 128 130 132 133 135 136 137 138 139 139 140 141 141 141 141 141 140 140 140 140 140
53 52 55 57 55 55 56 57 57 58 58 59 59 60 61 61 61 62 63 64 64 64 65 64 65 66 70 72 74 75 76 77 79 80 81 82 84 86 87 89 91 92 94 95 96 98 100 102 104 105 107 109 111 113 115 117 118 120 121 123 125 127 129 130 132 133 134 136 137 138 139 139 140 140 140 140 140 140 140 139 139 138 137 137 137 136
52 51 52 54 54 53 54 55 55 56 57 58 58 59 60 61 62 62 63 65 67 67 68 68 67 68 72 75 77 78 79 80 82 84 85 87 88 90 92 94 95 97 99 100 101 103 105 106 108 110 112 114 116 118 120 122 123 125 126 128 130 131 132 133 134 135 136 136 136 137 137 137 137 137 137 136 136 136 135 134 134 133 132 132 132 131
50 50 51 52 52 52 53 54 54 55 57 58 59 60 62 63 64 64 65 67 70 71 73 73 71 71 76 79 80 81 83 85 86 88 90 92 93 94 96 98 100 102 103 105 106 108 110 112 113 115 117 119 121 123 124 126 127 128 129 130 131 131 132 132 132 132 132 132 132 132 132 132 132 132 131 131 130 130 129 128 127 127 126 126 126 126
49 49 50 51 52 53 54 55 56 57 58 60 62 63 64 66 67 68 69 70 72 75 77 78 77 77 80 83 84 86 88 89 91 93 95 97 98 99 101 103 105 107 108 110 111 113 115 116 118 119 121 122 124 125 126 126 126 127 127 127 127 128 127 127 127 127 127 127 127 127 127 126 126 125 124 124 124 124 123 123 123 122 122 121 121 121
50 50 51 52 54 55 56 57 59 60 61 63 65 66 68 69 70 72 73 74 75 77 80 82 82 83 84 86 88 90 92 94 96 98 100 102 103 104 106 108 110 111 113 114 115 117 118 119 120 121 121 122 122 123 122 122 122 122 122 122 122 123 123 123 123 122 122 122 122 122 122 122 121 121 121 120 120 120 120 120 120 119 118 117 117 116
52 52 53 54 56 58 59 60 61 63 65 66 67 69 71 72 74 75 77 78 79 81 83 85 86 87 89 90 92 94 96 98 100 102 104 106 107 109 111 113 114 115 116 117 118 118 119 119 119 119 119 118 118 118 118 118 118 118 118 119 119 119 119 120 120 120 120 120 120 120 120 120 119 119 118 118 117 117 116 116 115 115 114 113 113 112
55 56 56 57 58 60 61 63 64 65 67 69 70 72 74 75 77 79 80 82 84 85 87 89 91 92 93 95 96 98 100 102 104 106 108 109 111 112 113 115 115 115 116 116 116 116 116 116 115 115 115 115 115 115 115 115 116 116 116 117 117 118 118 118 118 118 118 118 117 117 117 116 116 115 115 114 114 113 113 112 112 111 111 111 110 110
58 59 59 60 61 62 64 65 66 67 69 71 73 75 77 79 81 83 84 86 88 90 92 93 95 96 97 99 100 103 104 106 107 109 110 111 112 113 113 113 113 113 113 112 112 113 113 113 113 113 114 114 114 114 114 114 114 114 115 115 116 116 116 116 116 116 115 115 114 113 113 112 112 112 111 111 110 110 110 109 109 108 108 107 107 106
60 61 62 63 65 66 67 69 70 71 73 75 76 78 80 82 84 86 88 90 92 94 96 98 99 100 101 102 104 105 106 107 109 109 110 111 111 111 112 111 111 111 111 111 111 112 112 112 112 113 113 113 113 113 113 113 113 113 113 113 113 114 114 113 113 113 112 111 111 110 110 109 109 108 108 107 107 106 105 105 104 104 104 103 103 102
63 64 65 67 69 70 71 73 75 76 78 79 81 82 84 86 88 90 92 94 95 97 99 100 101 102 103 104 105 105 106 107 108 108 108 109 109 109 109 109 110 110 110 110 111 111 111 111 112 112 113 113 112 112 112 111 112 112 112 112 112 112 112 111 111 110 110 109 109 108 107 106 105 104 103 103 102 101 101 100 100 100 100 99 99 98
66 68 69 71 73 74 76 77 79 81 83 84 85 86 88 89 91 92 94 95 97 99 100 100 101 102 102 103 103 104 104 104 105 105 105 106 106 107 107 108 108 108 109 109 110 110 110 110 111 111 111 111 110 110 110 110 110 110 110 111 111 111 110 110 109 108 107 106 105 104 102 101 100 100 99 98 98 97 97 97 97 97 96 96 96 95
71 73 74 75 77 79 80 81 83 84 86 87 88 89 90 91 92 93 94 95 97 98 99 99 99 99 100 100 101 101 101 102 103 104 104 105 106 106 107 107 108 108 108 108 108 108 108 109 109 109 109 108 108 107 107 107 107 108 108 108 108 107 106 105 104 103 103 102 101 99 98 97 97 97 96 96 95 95 95 95 94 94 93 93 92 92
75 76 78 78 80 81 82 83 84 85 86 88 88 89 89 90 90 91 92 93 94 95 95 95 96 96 97 98 99 100 101 102 103 104 104 105 106 106 106 106 106 106 106 106 106 106 106 106 106 106 106 105 104 104 104 104 104 104 104 104 103 102 101 101 100 100 100 99 98 97 96 96 95 95 94 94 93 92 92 91 91 90 90 89 89 88
77 78 79 79 80 81 81 82 82 83 84 85 86 86 87 87 88 89 89 90 92 92 92 93 94 95 96 97 98 99 100 102 102 103 103 103 104 104 104 104 103 103 103 103 102 102 102 102 102 102 101 101 100 100 100 100 100 100 100 100 99 99 98 98 98 99 98 98 97 96 94 93 92 92 91 90 89 89 88 88 88 87 86 85 85 85
76 77 77 78 78 78 79 79 80 81 81 82 83 84 84 85 85 86 87 89 91 92 92 93 93 94 95 96 96 97 98 99 100 100 100 100 100 100 99 99 99 98 98 98 98 98 99 99 99 99 99 98 98 97 97 98 98 98 98 98 98 97 97 97 97 98 97 96 94 93 91 89 88 88 87 87 86 86 86 85 85 84 84 83 82 81
73 74 75 75 76 76 77 77 77 78 79 80 81 82 82 83 84 85 86 88 89 90 91 92 92 93 93 94 95 95 96 96 97 97 96 96 95 94 94 93 94 94 94 94 95 95 96 97 97 97 97 97 97 97 97 98 98 98 98 98 97 97 96 96 96 95 94 92 91 89 87 86 85 84 84 84 84 84 84 83 82 82 81 80 79 77
71 71 72 72 73 74 75 76 77 77 78 79 80 81 81 82 82 82 83 85 87 88 88 89 90 90 91 91 92 92 92 92 92 92 91 91 91 91 90 90 91 92 92 92 93 93 94 95 95 95 95 95 95 95 96 96 97 97 98 97 96 95 94 94 93 91 90 89 88 86 84 83 81 81 81 81 81 82 81 80 79 79 77 76 75 74
69 70 70 71 72 73 74 75 76 76 77 78 78 79 79 79 79 79 78 80 82 83 84 84 85 86 86 86 86 86 86 87 88 88 87 88 89 89 89 90 90 90 91 91 92 92 93 94 94 94 94 94 94 94 94 95 96 96 95 95 93 92 92 91 90 88 87 86 85 84 82 80 79 78 79 79 79 79 78 77 76 75 73 72 71 71
68 68 69 70 70 71 71 72 72 73 73 74 75 75 75 76 76 75 75 75 77 78 79 79 80 80 81 81 82 82 82 83 85 87 87 86 87 88 88 89 89 90 90 90 91 92 93 93 94 94 93 92 92 92 92 93 93 93 92 91 89 89 88 88 86 85 84 83 82 81 79 78 77 76 76 76 76 76 75 73 73 71 69 68 68 69
64 65 66 67 68 68 69 70 70 71 71 71 72 72 72 72 72 73 72 72 73 75 75 76 76 77 77 78 79 80 80 79 81 84 85 85 85 85 86 86 87 88 89 90 90 91 91 92 93 93 92 91 91 90 90 90 90 89 88 87 86 85 84 83 82 81 80 79 78 77 76 75 74 73 73 73 74 73 72 71 70 68 66 65 66 66
63 64 65 66 68 68 69 70 71 72 72 72 72 72 72 72 72 73 72 72 72 73 74 75 75 76 76 77 78 79 80 79 78 79 82 82 83 84 85 86 86 87 88 89 90 90 91 92 92 92 91 90 89 88 88 87 86 86 84 83 82 82 81 79 78 77 76 75 75 74 73 71 70 70 70 70 70 70 69 68 67 65 64 64 64 63
63 64 65 66 67 68 68 69 70 71 72 72 72 72 72 72 72 73 73 72 72 73 74 74 75 75 75 76 77 78 79 80 79 79 80 81 82 84 86 87 88 89 90 90 91 91 91 91 91 90 89 88 87 86 85 84 84 83 82 81 80 80 78 77 75 74 73 72 72 71 70 69 68 67 67 67 67 67 67 65 63 62 62 62 62 60
61 62 62 63 64 64 64 64 65 66 68 69 69 70 70 70 70 71 72 72 72 73 73 74 74 75 75 76 77 78 78 79 80 80 80 81 83 85 87 89 90 91 91 91 90 90 90 89 89 88 87 86 85 84 83 82 82 82 81 80 80 79 77 75 73 72 71 70 70 69 68 67 65 65 64 64 64 63 63 62 59 58 59 60 59 57
59 59 59 59 60 61 61 61 61 62 64 65 66 66 68 68 69 69 70 71 72 72 73 73 74 74 74 75 76 77 77 78 79 80 81 82 84 86 88 88 89 89 89 89 89 88 88 87 87 86 85 84 83 82 81 80 81 80 79 79 78 77 75 73 71 70 69 68 67 67 65 64 63 63 62 61 61 60 60 58 56 55 55 56 56 55
59 59 59 60 60 61 61 62 62 62 63 65 65 65 66 67 67 68 68 69 70 71 71 71 72 72 73 73 74 75 75 76 78 79 81 83 85 86 86 86 86 86 86 86 86 85 85 84 84 84 83 82 81 80 79 78 78 77 77 76 75 74 73 71 69 68 67 67 65 64 63 62 60 60 60 59 58 58 57 54 53 52 52 52 52 52
60 62 62 63 64 64 65 65 65 65 65 66 66 66 67 67 68 68 68 68 69 70 70 70 70 71 71 71 72 73 74 76 77 79 81 82 83 84 84 83 83 82 83 83 83 83 82 82 81 82 82 81 80 79 77 76 75 74 74 74 73 72 70 69 68 67 66 65 64 63 61 60 58 57 57 57 56 55 54 51 50 49 49 48 48 48
64 65 65 65 66 67 68 68 68 67 67 68 67 67 67 68 68 68 68 69 69 70 70 70 70 70 70 70 71 72 74 75 77 79 80 81 82 82 82 81 81 81 81 81 81 81 80 80 80 80 80 79 78 76 75 74 73 72 72 72 71 70 68 67 65 64 63 62 61 60 59 58 56 54 54 54 53 53 52 49 47 47 46 45 45 44
67 68 69 69 69 69 70 71 71 70 70 70 70 70 69 69 69 69 70 70 70 71 71 70 70 70 70 70 71 72 74 75 77 79 80 80 81 80 80 80 79 79 79 79 79 79 78 78 78 78 77 76 75 74 73 72 71 70 70 70 69 68 66 65 63 61 60 59 58 58 57 56 54 52 51 51 51 50 49 46 44 44 45 44 43 42
70 71 72 73 72 72 72 73 74 74 74 74 74 73 72 72 71 71 71 71 72 72 72 72 71 70 70 70 71 73 75 77 78 80 80 80 80 79 78 78 78 78 78 78 78 77 76 76 75 75 74 73 72 71 71 70 69 68 68 68 67 66 65 64 62 60 58 57 56 55 54 53 53 51 49 49 49 49 48 44 39 38 41 42 41 40
73 74 75 75 75 74 74 73 74 75 75 75 74 74 73 73 72 72 72 72 73 73 73 73 73 72 71 71 72 74 76 78 79 80 80 79 79 78 77 77 77 76 76 76 76 76 75 74 73 73 72 71 70 70 69 68 68 67 67 66 65 64 64 64 62 59 56 55 54 53 51 50 49 49 47 46 45 46 48 46 39 34 35 38 38 39
76 77 78 78 78 77 76 75 74 74 75 74 74 74 73 73 72 72 72 72 72 73 73 72 72 72 72 72 73 75 77 79 79 80 80 79 78 77 77 76 76 76 75 75 75 75 74 73 72 71 71 70 69 69 68 68 67 66 66 65 63 62 62 62 61 58 55 53 52 50 49 47 46 46 45 44 42 42 44 46 43 36 33 34 35 35
80 81 81 81 81 80 79 78 78 77 77 76 76 75 74 73 73 72 72 72 72 72 72 71 70 70 71 73 74 76 78 79 79 79 79 79 78 77 77 76 75 75 75 74 74 73 73 72 71 71 71 70 70 69 69 67 66 65 64 63 61 60 59 59 58 56 54 52 50 49 48 46 44 43 42 42 41 39 39 42 43 39 34 32 33 33
Wind_Direction
280 280 279 279 279 279 278 278 278 277 277 277 277 277 277 276 276 276 276 276 275 275 275 275 275 274 274 274 273 273 273 273 273 274 274 275 275 275 276 276 276 276 277 276 276 275 274 273 273 273 273 273 274 274 274 274 274 273 273 273 273 273 274 274 275 276 277 278 278 278 279 279 279 280 280 281 281 281 281 282 282 282 281 281 280 279
282 282 281 281 280 280 279 278 277 277 277 277 277 277 278 277 277 277 277 277 277 276 276 275 275 275 275 275 275 275 274 274 274 275 275 276 276 276 276 276 276 277 276 276 276 276 275 275 275 275 275 275 275 275 275 275 275 274 274 275 275 276 276 277 278 278 279 279 279 279 279 280 280 281 281 281 282 282 282 282 282 282 281 280 280 279
284 283 283 282 281 280 279 278 278 277 277 277 277 277 278 278 278 278 278 278 278 277 277 276 275 275 275 275 275 275 276 276 276 277 277 277 277 277 277 277 277 277 277 277 277 276 276 276 276 276 276 276 276 276 276 276 276 277 277 277 278 278 278 279 279 279 279 279 279 280 280 280 281 281 281 282 282 282 282 282 282 281 281 280 280 280
285 284 284 283 282 281 281 280 280 279 279 278 278 278 277 278 278 278 277 277 277 277 277 276 276 276 276 276 276 276 276 277 277 278 278 278 278 278 278 277 277 277 277 276 276 276 277 277 277 277 277 277 278 278 278 278 279 279 279 279 279 279 279 279 280 280 280 280 280 280 280 281 281 281 282 282 282 282 281 281 281 281 281 280 280 279
286 285 284 284 283 283 283 283 282 282 282 282 281 281 280 280 279 279 278 278 278 278 277 277 277 278 278 277 277 277 277 277 277 277 277 277 277 276 276 276 276 276 276 276 276 277 277 278 278 278 279 279 279 279 279 279 280 280 280 280 280 280 280 280 280 280 280 280 280 280 280 280 281 281 281 281 281 281 282 282 281 281 280 280 279 278
286 286 285 285 285 285 285 284 284 284 284 284 284 284 284 283 282 282 281 280 280 280 279 279 279 279 279 279 279 278 278 278 278 277 277 276 276 276 275 275 275 275 276 276 277 277 278 278 278 278 279 279 279 279 279 279 279 280 280 280 280 280 280 279 279 279 279 279 280 280 280 281 281 281 281 281 281 281 281 281 280 280 280 279 279 278
287 286 286 286 286 286 286 286 285 285 285 285 285 285 285 284 283 283 282 282 282 282 281 281 281 280 280 280 280 280 279 279 279 278 278 277 276 275 275 275 275 275 276 276 277 277 277 277 277 278 278 278 278 278 278 279 279 279 279 279 279 279 279 279 279 279 279 279 279 280 280 280 280 280 280 280 280 280 280 279 279 279 279 279 279 278
288 288 287 287 287 287 287 287 287 287 286 286 285 285 285 284 284 283 283 283 283 282 282 282 281 281 282 282 281 281 281 281 280 279 278 277 276 276 275 275 275 276 276 276 276 276 277 277 277 278 278 278 278 278 278 279 279 279 279 279 279 279 279 279 279 279 279 279 279 279 279 279 279 279 279 279 279 279 279 279 279 279 279 279 279 278
289 289 289 288 288 288 288 288 288 288 288 287 287 286 286 285 285 284 284 284 284 283 283 282 281 282 283 283 282 282 282 282 281 280 279 278 277 277 277 277 277 277 277 277 277 277 278 278 278 278 279 279 279 279 279 279 279 279 279 279 279 279 279 279 279 279 279 279 279 279 279 279 279 279 278 278 278 278 279 279 279 279 279 279 279 278
290 290 290 290 289 289 289 289 289 289 289 288 288 287 286 286 286 286 285 285 285 285 285 284 284 284 284 284 284 283 283 282 281 280 279 279 278 278 278 278 278 278 278 279 279 279 279 280 280 280 280 280 280 280 279 279 279 279 279 279 279 279 278 279 279 279 279 279 279 279 279 279 279 279 279 279 279 279 278 278 278 278 278 278 278 278
292 292 291 291 291 291 290 290 290 289 289 289 288 288 287 287 287 286 287 287 286 287 286 286 286 286 286 287 286 285 284 283 282 281 280 280 279 279 279 279 279 280 280 280 280 281 281 281 281 281 281 281 280 280 280 280 279 279 279 279 279 279 279 279 279 279 280 280 280 280 279 279 279 279 279 279 279 278 278 278 278 278 277 277 277 277
293 293 293 292 292 292 291 291 291 290 290 289 289 289 288 288 287 288 288 288 287 288 287 287 287 287 288 289 288 286 285 284 283 282 281 281 280 280 280 280 281 281 281 281 281 282 282 282 281 281 281 281 281 281 280 280 280 280 280 280 280 280 280 280 280 280 280 280 280 280 280 280 279 279 279 279 279 278 278 278 278 278 277 277 277 277
294 294 293 293 293 293 292 292 292 291 291 290 290 289 289 288 288 288 289 288 288 288 288 288 288 288 289 289 287 286 285 284 283 282 282 281 281 281 281 281 282 282 282 282 282 282 282 282 282 282 281 281 281 281 281 281 281 281 281 281 281 281 281 281 281 281 281 281 281 280 280 280 280 280 280 279 279 278 278 278 278 277 277 277 277 276
295 295 294 293 293 293 293 292 292 291 291 290 290 289 289 289 288 289 288 288 288 288 288 288 288 288 289 288 287 286 285 284 283 282 282 282 282 282 282 282 283 283 283 283 283 283 282 282 282 282 281 281 281 282 282 282 282 282 282 282 282 282 282 282 282 281 281 281 281 281 281 281 281 281 281 280 280 280 279 279 278 278 278 277 277 277
296 295 295 294 294 294 293 293 292 291 291 290 290 290 289 289 289 289 288 288 288 288 288 288 288 288 287 287 286 286 285 284 283 283 283 283 283 283 283 283 283 283 283 283 282 282 282 282 282 282 282 282 282 282 282 282 282 282 282 282 282 282 282 282 282 282 282 282 282 282 282 282 282 282 282 281 281 281 280 280 279 278 278 277 277 276
296 295 295 295 295 294 294 293 292 292 291 291 291 290 290 290 290 290 290 290 289 289 289 289 288 288 287 286 286 285 285 285 284 284 284 284 284 284 284 283 283 283 282 282 282 282 282 282 282 282 282 282 282 282 282 282 282 282 283 283 283 283 283 283 283 283 283 283 283 283 283 282 282 282 282 281 281 281 280 280 279 278 278 277 276 276
297 295 295 295 295 295 294 294 293 293 292 292 292 291 291 291 291 291 291 291 290 290 290 289 289 289 288 287 287 286 286 286 286 286 286 285 285 285 284 284 283 283 283 282 282 282 282 283 283 283 283 283 283 283 283 283 283 283 283 284 284 284 284 283 283 283 283 283 283 282 282 282 282 282 281 281 281 280 280 279 279 278 277 277 276 275
298 297 296 295 295 295 295 294 294 294 294 293 293 293 293 292 292 292 292 292 291 291 291 290 290 290 289 289 289 288 288 288 288 288 288 287 286 286 285 285 284 284 284 284 284 284 284 284 284 284 284 284 284 284 284 284 284 284 284 284 283 283 283 283 283 283 283 283 282 282 282 282 281 281 281 280 280 279 279 278 278 278 277 277 276 276
299 299 298 297 298 298 297 296 295 295 294 294 294 294 294 293 293 293 293 293 293 292 292 292 291 291 290 290 289 289 289 289 289 289 289 288 288 287 287 286 286 286 286 286 286 286 286 286 285 285 285 285 285 285 284 284 284 283 283 283 283 283 283 283 282 282 282 282 282 282 281 281 281 281 280 280 280 279 279 278 278 278 278 278 278 278
301 301 300 300 301 300 299 298 297 297 296 296 296 296 295 295 295 295 295 295 294 293 293 292 292 292 291 289 289 290 290 290 290 290 289 289 289 288 288 288 287 287 287 287 287 287 286 286 286 286 285 285 285 284 284 284 284 284 283 283 283 283 283 283 282 282 282 282 281 281 281 280 280 280 280 279 279 279 279 279 279 279 279 279 279 279
303 303 302 301 302 301 300 299 299 299 299 298 298 297 297 297 297 296 296 296 295 294 294 293 293 292 291 290 290 291 291 291 290 290 290 289 289 288 288 288 288 288 287 287 287 287 286 286 286 285 285 285 285 285 284 284 284 284 284 284 283 283 283 283 282 282 282 281 281 281 281 281 280 280 280 280 280 280 280 280 280 280 280 279 279 278
305 304 303 303 303 302 301 301 300 300 300 299 299 298 298 298 297 297 297 296 296 295 295 294 294 294 292 291 292 292 291 291 291 290 290 289 289 289 288 288 288 288 287 287 287 287 286 286 286 286 286 285 285 285 285 285 285 284 284 284 283 283 283 283 283 282 282 282 282 281 281 281 281 281 281 281 281 281 281 280 280 279 279 278 278 277
306 306 305 304 304 303 302 302 301 301 301 300 299 298 298 298 298 297 297 296 296 296 295 295 295 294 293 292 292 292 291 291 291 290 290 289 289 289 289 288 288 288 288 288 288 287 287 287 287 286 286 286 286 285 285 285 285 285 285 284 284 284 284 283 283 283 282 282 282 282 282 282 282 281 281 281 281 281 280 280 280 279 279 279 278 278
307 307 306 306 305 303 303 302 302 301 301 300 299 299 298 298 298 297 297 296 296 295 295 294 294 293 292 292 291 291 291 290 290 290 290 290 290 290 289 289 289 288 288 288 288 288 288 287 287 287 287 286 286 286 286 286 286 286 286 285 285 285 285 284 284 284 284 284 284 284 283 283 283 283 283 282 282 282 282 282 281 281 280 280 279 279
307 306 306 305 304 303 302 302 302 301 300 300 299 298 298 298 297 296 296 295 295 294 293 293 293 292 292 292 291 291 291 291 291 290 290 290 290 290 290 289 289 289 289 289 289 289 289 289 288 288 288 288 288 288 288 288 288 287 287 287 287 286 286 286 286 286 285 285 285 285 285 284 284 284 284 284 284 283 283 283 282 282 282 281 281 280
306 306 305 304 303 302 302 301 301 300 299 299 298 298 297 297 296 295 295 295 294 294 293 293 293 292 292 292 292 292 291 291 291 291 291 291 290 290 290 290 290 290 290 290 290 290 290 290 290 290 290 290 290 290 289 289 289 289 289 288 288 288 287 287 287 286 286 286 286 286 286 286 286 286 285 285 285 285 285 284 284 283 283 282 281 281
306 305 305 304 302 302 301 300 300 299 298 297 297 297 296 296 296 295 295 295 294 294 294 293 293 293 293 293 292 292 292 292 292 292 292 292 292 292 291 292 292 292 292 292 292 292 292 292 292 292 291 291 291 290 290 290 290 290 289 289 289 289 288 288 288 287 287 287 288 287 287 287 287 287 287 287 286 286 285 285 284 283 283 282 281 281
306 305 304 303 302 302 301 300 300 299 298 297 297 296 296 296 295 295 295 295 295 294 294 294 294 294 294 293 293 293 293 293 293 293 293 293 293 293 293 294 294 294 294 294 293 293 293 293 293 292 292 292 292 292 292 292 292 291 291 290 290 290 289 289 289 289 289 290 289 289 289 289 288 288 287 287 286 286 285 285 284 283 283 282 281 281
305 305 304 303 302 302 301 301 300 299 299 298 297 297 296 296 295 295 295 295 295 294 294 294 294 294 294 294 294 294 294 294 294 294 294 294 294 294 294 294 294 294 294 294 294 294 294 294 294 294 294 294 294 294 294 293 293 293 292 292 292 292 291 291 291 291 291 291 290 290 289 289 289 288 288 287 286 286 286 285 284 284 283 282 281 281
306 305 304 303 302 302 301 301 300 299 299 298 298 297 297 296 296 296 295 295 295 295 295 295 295 295 295 295 295 295 295 295 295 295 295 295 295 295 295 295 295 295 295 295 296 296 296 296 296 295 295 295 295 295 295 295 294 294 294 293 293 293 293 293 292 292 292 291 291 290 290 290 289 289 288 288 287 287 286 286 285 284 284 283 282 281
305 304 303 303 302 301 301 300 300 299 299 298 298 298 297 297 297 297 296 296 296 296 296 296 296 296 297 297 296 296 296 296 296 296 296 296 296 296 296 296 297 297 297 297 297 297 297 297 296 296 296 296 296 296 295 295 295 294 294 293 293 293 293 293 293 293 292 292 292 291 291 291 291 290 290 289 289 289 288 287 286 286 285 284 283 283
304 304 303 302 301 301 301 300 300 300 299 299 299 299 299 298 298 298 298 297 297 297 297 297 298 298 298 298 298 298 298 298 297 297 297 297 297 297 298 298 298 299 299 299 298 298 298 297 296 296 296 296 296 295 295 295 294 294 294 294 294 294 294 295 295 294 294 293 293 293 293 293 292 292 292 291 291 290 289 288 287 286 286 285 284 284
304 304 303 303 302 302 302 301 301 301 300 300 300 300 300 300 300 299 299 299 299 299 299 299 299 299 299 299 299 298 298 298 298 298 298 298 299 299 299 300 300 300 299 299 298 298 297 297 296 296 296 296 296 296 295 295 295 296 296 296 296 297 297 297 296 296 295 295 295 295 294 294 294 294 293 293 292 291 290 289 288 288 287 286 286 285
305 305 304 304 304 304 303 303 303 302 302 302 302 302 302 302 302 301 301 301 301 301 301 301 300 300 299 299 299 299 299 299 299 299 299 300 300 300 300 300 300 299 299 298 298 298 297 297 297 297 298 298 298 299 299 299 299 299 299 299 299 299 299 298 298 297 297 297 296 296 296 296 296 295 295 294 293 292 291 290 289 288 288 287 286 286
307 306 306 306 306 306 305 305 305 305 305 304 304 304 304 304 303 303 302 302 301 301 301 301 300 300 300 300 300 300 300 300 300 301 301 301 301 301 300 300 300 299 299 299 299 300 300 300 300 300 301 301 302 302 302 302 302 302 301 301 301 300 300 299 299 299 298 298 298 298 297 297 297 296 295 294 293 292 291 290 289 289 288 288 287 287
309 308 308 308 308 308 308 308 308 308 307 307 306 306 305 304 304 303 303 302 301 301 302 301 301 301 301 301 301 301 301 302 302 302 302 302 302 301 301 302 301 301 302 302 302 302 302 302 303 303 304 304 304 304 304 303 303 303 302 302 302 302 301 301 300 300 300 299 299 298 298 298 297 297 295 294 293 292 291 290 290 290 289 289 289 288
312 312 312 312 312 311 310 310 309 309 308 307 306 306 305 305 305 304 304 303 302 302 302 302 301 302 302 302 302 303 303 304 303 303 303 304 304 304 305 305 305 305 305 305 305 305 305 305 305 305 305 305 305 305 305 305 304 304 303 303 303 303 303 302 301 301 301 300 300 300 299 299 298 297 295 294 293 292 291 291 291 290 290 290 290 289
315 315 314 314 313 312 311 310 309 308 308 308 307 307 307 307 306 306 305 304 303 303 303 303 304 304 304 305 305 305 306 306 306 306 306 306 307 307 307 307 308 308 308 308 308 308 307 307 307 306 307 307 307 306 306 305 305 304 304 304 304 304 303 302 302 301 301 301 301 301 300 299 298 297 296 295 294 293 293 292 291 291 291 291 290 288
316 315 315 314 314 314 313 313 313 312 312 311 311 310 310 309 309 308 308 307 307 307 307 307 307 308 308 308 308 308 307 308 308 307 308 309 309 309 310 309 309 309 309 309 309 308 308 308 308 308 308 308 308 308 307 306 306 305 305 305 304 304 303 302 302 302 302 302 302 301 300 299 299 298 297 296 295 295 294 294 293 293 293 292 290 288
319 320 320 320 320 320 320 319 318 318 317 316 315 315 315 314 313 313 313 313 312 311 311 311 311 312 312 311 311 310 309 310 310 310 310 311 312 312 311 311 311 311 310 310 310 310 310 309 309 309 309 309 309 308 308 307 307 306 306 305 305 304 303 303 303 303 304 304 302 301 300 300 299 298 298 297 296 295 295 294 294 294 294 292 290 289
325 326 326 325 324 323 323 322 321 321 320 320 319 319 319 318 317 317 317 317 316 315 315 315 315 315 314 313 312 312 313 313 314 314 314 314 314 314 313 313 313 313 312 312 311 311 311 310 310 311 311 311 310 309 309 308 308 308 307 307 307 306 305 305 306 306 306 305 303 302 301 301 300 299 298 297 296 296 295 295 295 295 294 292 291 291
328 328 328 327 325 325 324 324 324 323 322 322 322 321 321 321 320 320 319 319 319 318 318 318 318 317 317 316 316 316 316 316 316 316 316 316 316 316 315 315 315 314 314 313 313 313 312 312 312 312 312 312 311 311 311 311 310 310 310 310 309 308 308 308 309 308 307 305 304 303 303 303 302 301 299 298 297 296 296 296 296 295 294 292 292 292
330 329 329 328 327 327 327 326 326 326 325 324 324 324 323 323 323 322 322 321 321 321 321 320 320 320 319 318 318 317 318 318 318 318 318 318 318 317 316 316 316 315 315 315 314 315 314 314 314 313 313 313 312 313 313 313 312 312 311 310 309 309 310 310 310 309 308 306 305 305 304 304 303 302 301 300 299 297 297 297 297 295 294 293 292 291
334 334 334 334 333 332 332 331 331 331 330 329 328 328 327 326 325 325 324 324 323 323 323 323 322 321 320 320 319 319 319 319 319 319 320 319 319 318 317 317 317 317 316 316 316 316 315 315 314 314 314 314 314 314 314 314 313 312 312 311 311 311 311 312 311 310 309 308 307 307 306 305 304 304 303 301 300 299 298 298 298 296 294 294 293 292
340 340 341 341 340 339 338 337 337 337 335 334 333 332 331 330 329 328 327 327 326 325 325 325 324 323 322 322 321 321 321 321 321 321 321 320 319 319 319 319 319 318 318 317 317 317 316 316 316 316 315 315 316 315 315 314 314 314 313 313 313 313 313 313 313 311 310 310 310 309 308 307 306 305 304 302 301 300 300 300 299 297 295 294 293 292
346 346 346 346 346 345 343 342 341 340 339 338 336 336 335 334 333 331 330 330 329 328 328 327 326 325 324 324 323 323 322 322 322 322 322 322 321 321 321 321 320 320 320 319 319 318 318 318 317 317 317 316 317 317 316 316 316 316 315 314 314 315 315 314 313 312 312 311 311 310 309 308 308 307 305 304 303 302 301 302 301 300 298 296 294 293
351 350 350 349 349 348 347 346 344 344 343 341 340 340 339 337 336 335 334 333 332 331 330 329 328 328 327 327 326 325 324 324 324 324 324 324 324 324 323 323 322 322 321 321 320 319 319 319 318 318 318 318 318 318 318 318 318 317 317 316 316 316 315 314 314 314 314 313 312 311 311 310 309 308 307 306 305 303 302 302 303 302 300 298 296 294
355 354 353 352 352 351 351 349 348 347 346 345 344 343 342 341 339 338 337 336 335 334 332 332 331 330 330 329 328 327 327 327 327 327 327 327 326 326 325 324 324 323 323 322 321 320 320 320 320 319 319 319 320 320 320 320 319 319 319 319 319 318 317 316 316 316 316 315 314 313 312 312 310 309 308 307 306 305 303 302 303 302 300 299 297 296
357 356 356 355 354 353 353 352 351 350 349 348 347 345 344 343 341 340 339 338 337 336 335 334 333 333 332 332 331 330 330 330 330 330 329 329 328 327 327 326 326 325 324 323 322 322 322 322 322 322 322 322 322 322 322 322 322 322 321 321 321 320 319 318 318 318 318 316 315 314 313 312 311 310 309 308 308 307 305 304 304 304 301 299 298 298
359 359 358 357 356 355 354 354 353 352 351 350 348 347 346 344 343 342 341 340 339 338 337 336 335 335 334 333 333 332 332 333 332 331 331 330 330 329 329 328 328 327 326 325 325 325 325 325 325 325 325 325 325 325 325 325 324 324 324 323 323 322 320 319 318 319 319 317 316 315 315 313 312 311 311 310 309 309 307 306 307 307 305 302 300 299
1 0 359 359 358 357 356 355 354 354 353 352 350 349 348 347 345 344 343 342 341 340 339 338 338 337 336 335 335 335 335 334 334 333 333 332 332 331 331 330 330 329 328 328 328 327 327 328 328 328 328 328 328 328 327 327 326 325 325 325 324 322 320 320 319 320 320 319 319 318 317 316 315 314 313 312 310 310 309 307 307 308 308 305 303 301